GPS BIIR-4 (PRN 20)

Last updated on July 6, 2021, 3:39 p.m. UTC

1 26360U 00025A   21186.66751383 -.00000071  00000-0  00000-0 0  9990
2 26360  53.7850  93.2281 0060564 176.3768 130.4723  2.00788096155013
UTC
Height (km)
Latitude
Longitude
Inclination
Orbital Period
UTC large
Height (km)
Speed (km/s)
/
Latitude / Longitude
Inclination (degrees)
Orbital Period (minutes)
Azimuth
Elevation
Range (km)
Doppler Factor
iOS Compass Heading
iOS Angle